sat.trackr.live / text

‹ back to catalog

SPIRIT

NORAD 58468 · 2023-185G

PAYLOAD ACTIVE UNKNOWN

§ Identity

Operator
Country
AUS
Launch date
2023-12-01
Launch site
AFWTR
Launch vehicle
Mass (kg)
RCS (m²)

External: N2YO · Heavens-Above · Gunter

§ Orbital elements

Epoch: 2026-08-01T14:32:05.460864Z

Period
87.81 min
Inclination
97.3119°
Eccentricity
0.0014157
Mean motion
16.39916138 rev/d
Perigee alt
156.8 km
Apogee alt
175.3 km
Semi-major
6,544.2 km
B*
4.7046e-4
RAAN
302.7880°
Arg perigee
311.8558°
Mean anomaly
48.1532°
Rev number
14,983

§ Raw data

SPIRIT1 58468U 23185G   26213.60561876  .06744580  24838-5  47046-3 0  99912 58468  97.3119 302.7880 0014157 311.8558  48.1532 16.39916138149835

JSON: /api/v1/satellites/58468 · /tle

For live sub-satellite position, see the globe view (requires WebGL).

§ Visibility from observer

Set your observer location to see the next 7 days of passes ≥ 10°. The values pass through the URL so the page stays shareable.

No JS? Fill the form by hand. The geolocation button needs JavaScript.

§ Radio — SatNOGS DB

ModeDescriptionDownlinkUplink
FSK Mode U - FSK9k6 Beacon 401.895 MHz

1 transmitter · refreshed weekly from db.satnogs.org